Weather History for Leesburg, FL

Change the Weather History Date:

Sunday, July 28, 2013

  Actual Average Record
Temperature  
Mean Temperature 80 °F -  
Max Temperature 89 °F 91 °F 96 °F (1968)
Min Temperature 73 °F 72 °F 69 °F (1964)
Cooling Degree Days 15    
Growing Degree Days 30 (Base 50)    
Moisture  
Dew Point 73 °F    
Average Humidity 84    
Maximum Humidity 94    
Minimum Humidity 65    
Precipitation  
Precipitation 1.01 in - - ()
Sea Level Pressure  
Sea Level Pressure 30.03 in    
Wind  
Wind Speed 4 mph (SSW)    
Max Wind Speed 17 mph    
Max Gust Speed 34 mph    
Visibility 8 miles    
Events Fog , Rain    
Averages and records for this station are not official NWS values.
T = Trace of Precipitation, MM = Missing Value Source: NWS Daily Summary

Daily Weather History Graph

Daily Weather History Graph

Search for Another Location

Airport:

Trip Planner

Search our weather history database for the weather conditions in past years. The results will help you decide how hot, cold, wet, or windy it might be!

Date:

Astronomy

Jul. 28, 2013 Rise Set
Actual Time 6:46 AM EDT 8:20 PM EDT
Civil Twilight 6:20 AM EDT 8:46 PM EDT
Nautical Twilight 5:49 AM EDT 9:17 PM EDT
Astronomical Twilight 5:17 AM EDT 9:49 PM EDT
Moon No Moon Rise 12:49 PM EDT (7/28)
Length of Visible Light 14h 26m
Length of Day
13h 34m
Waning Gibbous, 61% of the Moon is Illuminated
Jul 28
Waning Gibbous
Jul 29
Last Quarter
Aug 6
New
Aug 14
First Quarter
Aug 20
Full

Hourly Weather History & Observations

Time (EDT) Temp. Heat Index Dew Point Humidity Pressure Visibility Wind Dir Wind Speed Gust Speed Precip Events Conditions
12:53 AM 78.1 °F - 73.9 °F 87% 29.99 in 10.0 mi South 3.5 mph - N/A   Clear
1:53 AM 77.0 °F - 73.9 °F 90% 29.98 in 10.0 mi SSW 4.6 mph - N/A   Clear
2:53 AM 77.0 °F - 73.9 °F 90% 29.97 in 9.0 mi SSW 4.6 mph - N/A   Clear
3:53 AM 77.0 °F - 73.9 °F 90% 29.96 in 9.0 mi SSW 5.8 mph - N/A   Clear
4:14 AM 77.0 °F - 73.4 °F 89% 29.96 in 9.0 mi SW 4.6 mph - N/A   Partly Cloudy
4:53 AM 78.1 °F - 75.0 °F 90% 29.96 in 9.0 mi Calm Calm - N/A   Clear
5:53 AM 77.0 °F - 73.9 °F 90% 29.97 in 9.0 mi West 3.5 mph - N/A   Clear
6:53 AM 75.0 °F - 73.0 °F 94% 29.98 in 6.0 mi Calm Calm - N/A   Clear
7:53 AM 78.1 °F - 75.0 °F 90% 30.00 in 6.0 mi Calm Calm - N/A   Clear
8:53 AM 80.1 °F 85.1 °F 75.0 °F 85% 30.01 in 7.0 mi SSE 3.5 mph - N/A   Clear
9:53 AM 82.0 °F 89.4 °F 75.9 °F 82% 30.02 in 9.0 mi SSW 4.6 mph - N/A   Clear
10:53 AM 84.0 °F 92.6 °F 75.9 °F 76% 30.04 in 10.0 mi South 5.8 mph - N/A   Scattered Clouds
11:53 AM 84.9 °F 93.3 °F 75.0 °F 72% 30.04 in 10.0 mi East 4.6 mph - N/A   Overcast
12:22 PM 87.8 °F 97.6 °F 75.2 °F 66% 30.03 in 10.0 mi Calm Calm - N/A   Mostly Cloudy
12:53 PM 86.0 °F 95.1 °F 75.0 °F 70% 30.04 in 10.0 mi SSE 4.6 mph - N/A   Partly Cloudy
1:53 PM 87.1 °F 95.4 °F 73.9 °F 65% 30.02 in 10.0 mi Calm Calm - 0.00 in   Partly Cloudy
2:53 PM 82.9 °F 88.8 °F 73.0 °F 72% 30.01 in 7.0 mi WSW 5.8 mph - 0.00 in Rain Light Rain
3:53 PM 80.1 °F 83.6 °F 71.1 °F 74% 30.06 in 10.0 mi SSW 17.3 mph 29.9 mph 0.02 in   Mostly Cloudy
4:02 PM 75.2 °F - 71.6 °F 89% 30.09 in 0.8 mi South 17.3 mph 34.5 mph 0.12 in Rain Heavy Rain
4:11 PM 73.4 °F - 71.6 °F 94% 30.09 in 0.2 mi SW 5.8 mph 25.3 mph 0.45 in Fog , Rain Heavy Rain
4:38 PM 73.4 °F - 71.6 °F 94% 30.05 in 2.0 mi Calm Calm - 0.91 in Rain Rain
4:46 PM 73.4 °F - 69.8 °F 88% 30.04 in 2.5 mi Calm Calm - 0.93 in Rain Rain
4:53 PM 73.9 °F - 70.0 °F 87% 30.04 in 4.0 mi Calm Calm - 0.94 in Rain Rain
5:53 PM 80.1 °F 83.8 °F 72.0 °F 76% 30.04 in 10.0 mi Calm Calm - 0.05 in   Overcast
6:53 PM 77.0 °F - 72.0 °F 84% 30.06 in 10.0 mi SSE 8.1 mph - N/A   Mostly Cloudy
7:53 PM 79.0 °F - 73.0 °F 82% 30.03 in 10.0 mi SW 3.5 mph - N/A   Clear
8:46 PM 78.8 °F - 73.4 °F 83% 30.05 in 10.0 mi Variable 3.5 mph - N/A   Partly Cloudy
8:53 PM 77.0 °F - 73.0 °F 88% 30.05 in 10.0 mi SSW 3.5 mph - N/A   Partly Cloudy
9:53 PM 77.0 °F - 73.9 °F 90% 30.07 in 10.0 mi Calm Calm - 0.00 in   Scattered Clouds
10:53 PM 78.1 °F - 73.0 °F 84% 30.08 in 10.0 mi SSW 3.5 mph - N/A   Clear
11:53 PM 78.1 °F - 73.0 °F 84% 30.09 in 10.0 mi South 4.6 mph - N/A   Clear